Regional Weather Roundup
Issued by NWS

Home | Current Version | Previous Version | Graphics & Text | Print | Product List | Glossary On
Versions: 1 2 3 4 5 6 7 8 9 10 11 12 13 14 15 16 17 18 19 20 21 22 23 24 25 26 27 28 29 30 31 32 33 34 35 36 37 38 39 40 41 42 43 44 45 46 47 48 49 50
000
ASUS45 KTFX 092004
RWRMT
MONTANA HOURLY WEATHER ROUNDUP
NATIONAL WEATHER SERVICE GREAT FALLS MT
204 PM MDT WED JUL 9 2014

NOTE: "FAIR" INDICATES FEW OR NO CLOUDS BELOW 12000 FEET WITH NO
SIGNIFICANT WEATHER AND/OR OBSTRUCTIONS TO VISIBILITY.

* THESE STATIONS ARE NOT UNDER NWS QUALITY CONTROL. THEY DO NOT
   REPORT WEATHER SUCH AS PRECIPITATION OR FOG.

MTZ001>007-043-092100-
WEST OF THE DIVIDE
CITY           SKY/WX    TMP DP  RH WIND       PRES   REMARKS
KALISPELL      PTSUNNY   81  55  41 SE14      29.89F HI  81
MISSOULA       PTSUNNY   86  50  29 VRB6      29.94F
BUTTE          PTSUNNY   82  41  23 W6        30.05F
MULLAN PASS    PTSUNNY   72  43  35 VRB5      30.12F
* ESSEX        N/A      N/A N/A N/A N/A        N/A
* LINCOLN      N/A       81  47  30 S6G14      N/A
* LOOKOUT PASS N/A       79  46  31 SE4G12     N/A
* POLSON       N/A       85  54  35 SE3        N/A
* RONAN APT    PTSUNNY   84  54  36 N/A        N/A
* SEELEY LAKE  N/A       84  45  26 SW6G11     N/A
* THOMP F APT  PTCLDY    81  41  24 SE6G18     N/A
* YAAK HILL    N/A       89  53  29 SW1        N/A
$$

MTZ008-052>055-092100-
SOUTHWEST MONTANA
CITY           SKY/WX    TMP DP  RH WIND       PRES   REMARKS
BOZEMAN        PTSUNNY   81  54  39 N7        29.98F
DILLON         PTSUNNY   81  57  44 N8        30.01F HI  81
W YELLOWSTONE  PTCLDY    81  37  21 SW20G26   30.14F
* THREE FORKS  PTSUNNY   81  59  47 N/A        N/A   HI  81
* BOULDER HILL N/A       80  48  33 SW9G16     N/A
* MONIDA PASS  N/A       80  41  25 SE1G9      N/A
* RAYNOLDS PAS N/A       80  53  39 SE8        N/A
* WHITEHALL    N/A       87  54  32 S5         N/A
* WISE RIVER   N/A       80  43  27 NW4G12     N/A
$$

MTZ009>010-012-014-046-048-049-054-092100-
EAST SLOPES AND CENTRAL MONTANA
CITY           SKY/WX    TMP DP  RH WIND       PRES   REMARKS
CUT BANK       PTCLDY    88  48  25 W15       29.89F
GREAT FALLS    PTCLDY    86  46  25 CALM      29.90F
HELENA         PTSUNNY   88  48  25 CALM      29.92F
* CONRAD       PTCLDY    84  59  43 N/A        N/A   HI  84
* DEARBORN     N/A       87  47  25 SW2G14     N/A
* EAST GLACIER N/A       76  46  35 W12G24     N/A
* MONARCH      N/A       82  43  25 W6G11      N/A
* PENDROY      N/A       86  52  31 SE2        N/A
* ROGERS PASS  N/A       77  43  30 SE12G18    N/A
* SAINT MARY   N/A       81  44  27 SW8G18     N/A
* SWEET GRASS  N/A       84  41  22 SW8G18     N/A
$$

MTZ011-013-016-021-035-040-045-047-050-051-092100-
NORTH CENTRAL MONTANA
CITY           SKY/WX    TMP DP  RH WIND       PRES   REMARKS
HAVRE          SUNNY     90  43  19 CALM      29.84F
LEWISTOWN      PTCLDY    88  50  27 VRB6      29.94F
* CHESTER      N/A       87  44  22 SW5G14     N/A
* DENTON       N/A       90  51  26 NE6        N/A
* GEYSER       N/A       88  49  26 N/A        N/A
* JUDITH GAP   N/A       83  51  33 S8G14      N/A
* LOMA         N/A       89  44  21 SE9        N/A
$$

MTZ017>020-022>027-061-062-092100-
NORTHEAST MONTANA
CITY           SKY/WX    TMP DP  RH WIND       PRES   REMARKS
GLASGOW        SUNNY     88  48  25 SE12G18   29.89F
GLENDIVE       SUNNY     86  52  31 S12       29.95F
JORDAN         SUNNY     90  45  21 S8G18     29.89F
SIDNEY         SUNNY     84  48  29 E3        29.96F
WOLF POINT     SUNNY     88  48  25 SE7       29.91F
* BEAVER HILL  N/A       81  51  35 E10G17     N/A
* CIRCLE       N/A       84  54  36 SE8        N/A
* LINDSAY DVD  N/A       80  53  39 SE8G14     N/A
* NAVAJO       N/A       78  52  40 SW10       N/A
$$

MTZ028>042-056>058-092100-
SOUTHCENTRAL AND SOUTHEAST MONTANA
CITY           SKY/WX    TMP DP  RH WIND       PRES   REMARKS
BAKER          SUNNY     86  46  25 SE10      29.98F
BILLINGS       PTCLDY    88  50  27 CALM      29.92F
LIVINGSTON     PTSUNNY   88  48  25 VRB3      29.96F
MILES CITY     SUNNY     88  48  25 SE8       29.91F
* LAUREL APT   PTCLDY    86  52  31 N/A        N/A
* ROUNDUP APT  SUNNY     88  46  23 E8         N/A
* ALZADA       N/A       79  50  36 NE7G13     N/A
* HYSHAM       N/A       87  52  30 SE9        N/A
* LAME DEER    N/A       79  54  42 SE9G16     N/A
* REED POINT   N/A       88  51  28 NE4        N/A
* ROSCOE HILL  N/A       81  48  32 SE4        N/A
$$

REGIONAL REPORTS...DAKOTAS
CITY           SKY/WX    TMP DP  RH WIND       PRES   REMARKS
WILLISTON      SUNNY     82  48  31 SE6       29.96F
DICKINSON      SUNNY     79  54  42 S7        29.99F
CROSBY         PTCLDY    75  59  58 SW3       29.97F
WATFORD CITY   SUNNY     79  55  44 SE8       29.95F
BISMARCK       HAZE      77  57  50 VRB3      30.01F
GRAND FORKS    PTCLDY    72  50  46 N8        30.01F
FARGO          SUNNY     75  50  42 N8        30.01F
BUFFALO SD     SUNNY     82  52  35 SE10      29.94F
RAPID CITY     SUNNY     79  54  42 E12G22    30.03F
$$

REGIONAL REPORTS...WYOMING/IDAHO/WASHINGTON
CITY           SKY/WX    TMP DP  RH WIND       PRES   REMARKS
GILLETTE       SUNNY     84  46  26 E8        30.01F
SHERIDAN       SUNNY     88  48  25 SE12      29.96F
YELLOWSTONE LA PTCLDY    73  32  22 VRB7      30.25F
SALMON         CLOUDY    82  46  28 W5        29.95F
MULLAN PASS    PTSUNNY   72  43  35 VRB5      30.12S
SAND POINT     PTSUNNY   82  55  40 W3        29.87F HI  81
SPOKANE        PTSUNNY   88  43  21 S18G24    29.88F

$$



USA.gov is the U.S. government's official web portal to all federal, state and local government web resources and services.